Year,Month,Day,Hour,Minute,Value (Times are PST for temperature in C)
2012,08,05,00,00,24.90
2012,08,05,00,01,24.90
2012,08,05,00,02,24.90
2012,08,05,00,03,24.80
2012,08,05,00,04,24.80
2012,08,05,00,05,24.80
2012,08,05,00,06,24.70
2012,08,05,00,07,24.70
2012,08,05,00,08,24.60
2012,08,05,00,09,24.60
2012,08,05,00,10,24.60
2012,08,05,00,11,24.50
2012,08,05,00,12,24.50
2012,08,05,00,13,24.40
2012,08,05,00,14,24.40
2012,08,05,00,15,24.40
2012,08,05,00,16,24.30
2012,08,05,00,17,24.30
2012,08,05,00,18,24.30
2012,08,05,00,19,24.20
2012,08,05,00,20,24.20
2012,08,05,00,21,24.10
2012,08,05,00,22,24.10
2012,08,05,00,23,24.10
2012,08,05,00,24,24.10
2012,08,05,00,25,24.10
2012,08,05,00,26,24.00
2012,08,05,00,27,24.00
2012,08,05,00,28,24.00
2012,08,05,00,29,24.00
2012,08,05,00,30,23.90
2012,08,05,00,31,23.90
2012,08,05,00,32,23.80
2012,08,05,00,33,23.80
2012,08,05,00,34,23.80
2012,08,05,00,35,23.70
2012,08,05,00,36,23.70
2012,08,05,00,37,23.70
2012,08,05,00,38,23.60
2012,08,05,00,39,23.60
2012,08,05,00,40,23.60
2012,08,05,00,41,23.50
2012,08,05,00,42,23.60
2012,08,05,00,43,23.60
2012,08,05,00,44,23.60
2012,08,05,00,45,23.60
2012,08,05,00,46,23.60
2012,08,05,00,47,23.60
2012,08,05,00,48,23.60
2012,08,05,00,49,23.60
2012,08,05,00,50,23.60
2012,08,05,00,51,23.60
2012,08,05,00,52,23.60
2012,08,05,00,53,23.60
2012,08,05,00,54,23.60
2012,08,05,00,55,23.60
2012,08,05,00,56,23.60
2012,08,05,00,57,23.50
2012,08,05,00,58,23.50
2012,08,05,00,59,23.40
2012,08,05,01,00,23.40
2012,08,05,01,01,23.40
2012,08,05,01,02,23.30
2012,08,05,01,03,23.30
2012,08,05,01,04,23.30
2012,08,05,01,05,23.20
2012,08,05,01,06,23.20
2012,08,05,01,07,23.20
2012,08,05,01,08,23.20
2012,08,05,01,09,23.10
2012,08,05,01,10,23.10
2012,08,05,01,11,23.10
2012,08,05,01,12,23.00
2012,08,05,01,13,23.00
2012,08,05,01,14,23.00
2012,08,05,01,15,23.00
2012,08,05,01,16,22.90
2012,08,05,01,17,22.90
2012,08,05,01,18,22.90
2012,08,05,01,19,22.80
2012,08,05,01,20,22.80
2012,08,05,01,21,22.80
2012,08,05,01,22,22.80
2012,08,05,01,23,22.70
2012,08,05,01,24,22.70
2012,08,05,01,25,22.70
2012,08,05,01,26,22.60
2012,08,05,01,27,22.60
2012,08,05,01,28,22.60
2012,08,05,01,29,22.60
2012,08,05,01,30,22.50
2012,08,05,01,31,22.50
2012,08,05,01,32,22.50
2012,08,05,01,33,22.40
2012,08,05,01,34,22.40
2012,08,05,01,35,22.40
2012,08,05,01,36,22.40
2012,08,05,01,37,22.30
2012,08,05,01,38,22.30
2012,08,05,01,39,22.30
2012,08,05,01,40,22.30
2012,08,05,01,41,22.20
2012,08,05,01,42,22.20
2012,08,05,01,43,22.20
2012,08,05,01,44,22.10
2012,08,05,01,45,22.10
2012,08,05,01,46,22.10
2012,08,05,01,47,22.10
2012,08,05,01,48,22.10
2012,08,05,01,49,22.10
2012,08,05,01,50,22.10
2012,08,05,01,51,22.10
2012,08,05,01,52,22.00
2012,08,05,01,53,22.00
2012,08,05,01,54,22.00
2012,08,05,01,55,22.00
2012,08,05,01,56,22.00
2012,08,05,01,57,22.00
2012,08,05,01,58,22.00
2012,08,05,01,59,22.00
2012,08,05,02,00,22.00
2012,08,05,02,01,22.00
2012,08,05,02,02,22.00
2012,08,05,02,03,22.00
2012,08,05,02,04,22.00
2012,08,05,02,05,22.00
2012,08,05,02,06,22.00
2012,08,05,02,07,21.90
2012,08,05,02,08,21.90
2012,08,05,02,09,21.90
2012,08,05,02,10,21.90
2012,08,05,02,11,21.80
2012,08,05,02,12,21.80
2012,08,05,02,13,21.80
2012,08,05,02,14,21.80
2012,08,05,02,15,21.80
2012,08,05,02,16,21.80
2012,08,05,02,17,21.80
2012,08,05,02,18,21.80
2012,08,05,02,19,21.70
2012,08,05,02,20,21.70
2012,08,05,02,21,21.70
2012,08,05,02,22,21.70
2012,08,05,02,23,21.70
2012,08,05,02,24,21.70
2012,08,05,02,25,21.70
2012,08,05,02,26,21.60
2012,08,05,02,27,21.60
2012,08,05,02,28,21.60
2012,08,05,02,29,21.50
2012,08,05,02,30,21.50
2012,08,05,02,31,21.40
2012,08,05,02,32,21.40
2012,08,05,02,33,21.40
2012,08,05,02,34,21.40
2012,08,05,02,35,21.40
2012,08,05,02,36,21.30
2012,08,05,02,37,21.30
2012,08,05,02,38,21.30
2012,08,05,02,39,21.30
2012,08,05,02,40,21.30
2012,08,05,02,41,21.30
2012,08,05,02,42,21.20
2012,08,05,02,43,21.20
2012,08,05,02,44,21.20
2012,08,05,02,45,21.20
2012,08,05,02,46,21.20
2012,08,05,02,47,21.20
2012,08,05,02,48,21.20
2012,08,05,02,49,21.20
2012,08,05,02,50,21.20
2012,08,05,02,51,21.20
2012,08,05,02,52,21.20
2012,08,05,02,53,21.10
2012,08,05,02,54,21.00
2012,08,05,02,55,21.00
2012,08,05,02,56,20.90
2012,08,05,02,57,20.90
2012,08,05,02,58,20.80
2012,08,05,02,59,20.80
2012,08,05,03,00,20.70
2012,08,05,03,01,20.70
2012,08,05,03,02,20.60
2012,08,05,03,03,20.60
2012,08,05,03,04,20.50
2012,08,05,03,05,20.50
2012,08,05,03,06,20.40
2012,08,05,03,07,20.40
2012,08,05,03,08,20.40
2012,08,05,03,09,20.40
2012,08,05,03,10,20.40
2012,08,05,03,11,20.40
2012,08,05,03,12,20.40
2012,08,05,03,13,20.40
2012,08,05,03,14,20.40
2012,08,05,03,15,20.40
2012,08,05,03,16,20.40
2012,08,05,03,17,20.40
2012,08,05,03,18,20.40
2012,08,05,03,19,20.40
2012,08,05,03,20,20.40
2012,08,05,03,21,20.50
2012,08,05,03,22,20.50
2012,08,05,03,23,20.60
2012,08,05,03,24,20.60
2012,08,05,03,25,20.70
2012,08,05,03,26,20.80
2012,08,05,03,27,20.80
2012,08,05,03,28,20.90
2012,08,05,03,29,20.90
2012,08,05,03,30,20.90
2012,08,05,03,31,21.00
2012,08,05,03,32,21.00
2012,08,05,03,33,21.00
2012,08,05,03,34,21.10
2012,08,05,03,35,21.10
2012,08,05,03,36,21.10
2012,08,05,03,37,21.10
2012,08,05,03,38,21.10
2012,08,05,03,39,21.10
2012,08,05,03,40,21.10
2012,08,05,03,41,21.10
2012,08,05,03,42,21.10
2012,08,05,03,43,21.10
2012,08,05,03,44,21.00
2012,08,05,03,45,21.00
2012,08,05,03,46,21.00
2012,08,05,03,47,20.90
2012,08,05,03,48,20.90
2012,08,05,03,49,20.90
2012,08,05,03,50,20.80
2012,08,05,03,51,20.80
2012,08,05,03,52,20.70
2012,08,05,03,53,20.70
2012,08,05,03,54,20.70
2012,08,05,03,55,20.70
2012,08,05,03,56,20.80
2012,08,05,03,57,20.80
2012,08,05,03,58,20.80
2012,08,05,03,59,20.80
2012,08,05,04,00,20.80
2012,08,05,04,01,20.80
2012,08,05,04,02,20.80
2012,08,05,04,03,20.80
2012,08,05,04,04,20.80
2012,08,05,04,05,20.80
2012,08,05,04,06,20.80
2012,08,05,04,07,20.70
2012,08,05,04,08,20.70
2012,08,05,04,09,20.70
2012,08,05,04,10,20.70
2012,08,05,04,11,20.70
2012,08,05,04,12,20.70
2012,08,05,04,13,20.70
2012,08,05,04,14,20.70
2012,08,05,04,15,20.70
2012,08,05,04,16,20.70
2012,08,05,04,17,20.70
2012,08,05,04,18,20.70
2012,08,05,04,19,20.70
2012,08,05,04,20,20.70
2012,08,05,04,21,20.70
2012,08,05,04,22,20.70
2012,08,05,04,23,20.70
2012,08,05,04,24,20.70
2012,08,05,04,25,20.70
2012,08,05,04,26,20.80
2012,08,05,04,27,20.80
2012,08,05,04,28,20.80
2012,08,05,04,29,20.90
2012,08,05,04,30,20.90
2012,08,05,04,31,21.00
2012,08,05,04,32,21.00
2012,08,05,04,33,21.10
2012,08,05,04,34,21.10
2012,08,05,04,35,21.20
2012,08,05,04,36,21.20
2012,08,05,04,37,21.20
2012,08,05,04,38,21.20
2012,08,05,04,39,21.30
2012,08,05,04,40,21.30
2012,08,05,04,41,21.30
2012,08,05,04,42,21.30
2012,08,05,04,43,21.20
2012,08,05,04,44,21.20
2012,08,05,04,45,21.20
2012,08,05,04,46,21.20
2012,08,05,04,47,21.20
2012,08,05,04,48,21.20
2012,08,05,04,49,21.20
2012,08,05,04,50,21.10
2012,08,05,04,51,21.10
2012,08,05,04,52,21.00
2012,08,05,04,53,21.00
2012,08,05,04,54,20.90
2012,08,05,04,55,20.90
2012,08,05,04,56,20.90
2012,08,05,04,57,20.80
2012,08,05,04,58,20.80
2012,08,05,04,59,20.80
2012,08,05,05,00,20.80
2012,08,05,05,01,20.70
2012,08,05,05,02,20.70
2012,08,05,05,03,20.60
2012,08,05,05,04,20.50
2012,08,05,05,05,20.40
2012,08,05,05,06,20.40
2012,08,05,05,07,20.30
2012,08,05,05,08,20.20
2012,08,05,05,09,20.10
2012,08,05,05,10,20.10
2012,08,05,05,11,19.90
2012,08,05,05,12,19.90
2012,08,05,05,13,19.80
2012,08,05,05,14,19.80
2012,08,05,05,15,19.80
2012,08,05,05,16,19.70
2012,08,05,05,17,19.70
2012,08,05,05,18,19.70
2012,08,05,05,19,19.70
2012,08,05,05,20,19.70
2012,08,05,05,21,19.70
2012,08,05,05,22,19.70
2012,08,05,05,23,19.70
2012,08,05,05,24,19.60
2012,08,05,05,25,19.60
2012,08,05,05,26,19.60
2012,08,05,05,27,19.60
2012,08,05,05,28,19.60
2012,08,05,05,29,19.50
2012,08,05,05,30,19.50
2012,08,05,05,31,19.50
2012,08,05,05,32,19.40
2012,08,05,05,33,19.40
2012,08,05,05,34,19.40
2012,08,05,05,35,19.30
2012,08,05,05,36,19.30
2012,08,05,05,37,19.20
2012,08,05,05,38,19.20
2012,08,05,05,39,19.20
2012,08,05,05,40,19.10
2012,08,05,05,41,19.10
2012,08,05,05,42,19.10
2012,08,05,05,43,19.10
2012,08,05,05,44,19.10
2012,08,05,05,45,19.10
2012,08,05,05,46,19.10
2012,08,05,05,47,19.10
2012,08,05,05,48,19.10
2012,08,05,05,49,19.10
2012,08,05,05,50,19.10
2012,08,05,05,51,19.10
2012,08,05,05,52,19.10
2012,08,05,05,53,19.20
2012,08,05,05,54,19.20
2012,08,05,05,55,19.20
2012,08,05,05,56,19.30
2012,08,05,05,57,19.30
2012,08,05,05,58,19.30
2012,08,05,05,59,19.30
2012,08,05,06,00,19.30
2012,08,05,06,01,19.30
2012,08,05,06,02,19.30
2012,08,05,06,03,19.30
2012,08,05,06,04,19.30
2012,08,05,06,05,19.20
2012,08,05,06,06,19.20
2012,08,05,06,07,19.20
2012,08,05,06,08,19.20
2012,08,05,06,09,19.20
2012,08,05,06,10,19.10
2012,08,05,06,11,19.10
2012,08,05,06,12,19.10
2012,08,05,06,13,19.10
2012,08,05,06,14,19.10
2012,08,05,06,15,19.10
2012,08,05,06,16,19.10
2012,08,05,06,17,19.10
2012,08,05,06,18,19.00
2012,08,05,06,19,19.00
2012,08,05,06,20,18.90
2012,08,05,06,21,18.90
2012,08,05,06,22,18.80
2012,08,05,06,23,18.80
2012,08,05,06,24,18.80
2012,08,05,06,25,18.80
2012,08,05,06,26,18.80
2012,08,05,06,27,18.80
2012,08,05,06,28,18.70
2012,08,05,06,29,18.80
2012,08,05,06,30,18.80
2012,08,05,06,31,18.80
2012,08,05,06,32,18.80
2012,08,05,06,33,18.80
2012,08,05,06,34,18.80
2012,08,05,06,35,18.80
2012,08,05,06,36,18.90
2012,08,05,06,37,18.90
2012,08,05,06,38,18.90
2012,08,05,06,39,18.90
2012,08,05,06,40,18.90
2012,08,05,06,41,18.90
2012,08,05,06,42,18.90
2012,08,05,06,43,19.00
2012,08,05,06,44,19.00
2012,08,05,06,45,19.10
2012,08,05,06,46,19.20
2012,08,05,06,47,19.40
2012,08,05,06,48,19.50
2012,08,05,06,49,19.60
2012,08,05,06,50,19.70
2012,08,05,06,51,19.80
2012,08,05,06,52,20.00
2012,08,05,06,53,20.00
2012,08,05,06,54,20.10
2012,08,05,06,55,20.20
2012,08,05,06,56,20.30
2012,08,05,06,57,20.30
2012,08,05,06,58,20.40
2012,08,05,06,59,20.50
2012,08,05,07,00,20.50
2012,08,05,07,01,20.60
2012,08,05,07,02,20.70
2012,08,05,07,03,20.70
2012,08,05,07,04,20.80
2012,08,05,07,05,20.90
2012,08,05,07,06,20.90
2012,08,05,07,07,21.00
2012,08,05,07,08,21.10
2012,08,05,07,09,21.20
2012,08,05,07,10,21.20
2012,08,05,07,11,21.30
2012,08,05,07,12,21.30
2012,08,05,07,13,21.40
2012,08,05,07,14,21.50
2012,08,05,07,15,21.50
2012,08,05,07,16,21.60
2012,08,05,07,17,21.60
2012,08,05,07,18,21.70
2012,08,05,07,19,21.70
2012,08,05,07,20,21.80
2012,08,05,07,21,21.80
2012,08,05,07,22,21.80
2012,08,05,07,23,21.80
2012,08,05,07,24,21.70
2012,08,05,07,25,21.70
2012,08,05,07,26,21.80
2012,08,05,07,27,21.80
2012,08,05,07,28,21.80
2012,08,05,07,29,21.80
2012,08,05,07,30,21.80
2012,08,05,07,31,21.80
2012,08,05,07,32,21.70
2012,08,05,07,33,21.70
2012,08,05,07,34,21.70
2012,08,05,07,35,21.70
2012,08,05,07,36,21.70
2012,08,05,07,37,21.70
2012,08,05,07,38,21.70
2012,08,05,07,39,21.70
2012,08,05,07,40,21.70
2012,08,05,07,41,21.70
2012,08,05,07,42,21.80
2012,08,05,07,43,21.80
2012,08,05,07,44,21.80
2012,08,05,07,45,21.80
2012,08,05,07,46,21.90
2012,08,05,07,47,21.90
2012,08,05,07,48,21.80
2012,08,05,07,49,21.80
2012,08,05,07,50,21.80
2012,08,05,07,51,21.80
2012,08,05,07,52,21.80
2012,08,05,07,53,21.80
2012,08,05,07,54,21.70
2012,08,05,07,55,21.70
2012,08,05,07,56,21.60
2012,08,05,07,57,21.60
2012,08,05,07,58,21.60
2012,08,05,07,59,21.60
2012,08,05,08,00,21.60
2012,08,05,08,01,21.70
2012,08,05,08,02,21.70
2012,08,05,08,03,21.70
2012,08,05,08,04,21.70
2012,08,05,08,05,21.70
2012,08,05,08,06,21.80
2012,08,05,08,07,21.80
2012,08,05,08,08,21.80
2012,08,05,08,09,21.80
2012,08,05,08,10,21.80
2012,08,05,08,11,21.80
2012,08,05,08,12,21.80
2012,08,05,08,13,21.80
2012,08,05,08,14,21.80
2012,08,05,08,15,21.80
2012,08,05,08,16,21.80
2012,08,05,08,17,21.80
2012,08,05,08,18,21.90
2012,08,05,08,19,21.90
2012,08,05,08,20,22.00
2012,08,05,08,21,22.10
2012,08,05,08,22,22.10
2012,08,05,08,23,22.20
2012,08,05,08,24,22.30
2012,08,05,08,25,22.30
2012,08,05,08,26,22.40
2012,08,05,08,27,22.40
2012,08,05,08,28,22.50
2012,08,05,08,29,22.50
2012,08,05,08,30,22.60
2012,08,05,08,31,22.70
2012,08,05,08,32,22.70
2012,08,05,08,33,22.80
2012,08,05,08,34,22.80
2012,08,05,08,35,22.80
2012,08,05,08,36,22.80
2012,08,05,08,37,22.80
2012,08,05,08,38,22.80
2012,08,05,08,39,22.80
2012,08,05,08,40,22.80
2012,08,05,08,41,22.80
2012,08,05,08,42,22.90
2012,08,05,08,43,23.00
2012,08,05,08,44,23.00
2012,08,05,08,45,23.00
2012,08,05,08,46,23.10
2012,08,05,08,47,23.10
2012,08,05,08,48,23.10
2012,08,05,08,49,23.10
2012,08,05,08,50,23.10
2012,08,05,08,51,23.20
2012,08,05,08,52,23.30
2012,08,05,08,53,23.30
2012,08,05,08,54,23.30
2012,08,05,08,55,23.40
2012,08,05,08,56,23.40
2012,08,05,08,57,23.40
2012,08,05,08,58,23.50
2012,08,05,08,59,23.60
2012,08,05,09,00,23.70
2012,08,05,09,01,23.70
2012,08,05,09,02,23.70
2012,08,05,09,03,23.70
2012,08,05,09,04,23.80
2012,08,05,09,05,23.80
2012,08,05,09,06,23.80
2012,08,05,09,07,23.80
2012,08,05,09,08,23.90
2012,08,05,09,09,23.90
2012,08,05,09,10,24.00
2012,08,05,09,11,24.00
2012,08,05,09,12,24.00
2012,08,05,09,13,24.10
2012,08,05,09,14,24.10
2012,08,05,09,15,24.10
2012,08,05,09,16,24.10
2012,08,05,09,17,24.00
2012,08,05,09,18,24.00
2012,08,05,09,19,24.00
2012,08,05,09,20,24.00
2012,08,05,09,21,24.10
2012,08,05,09,22,24.00
2012,08,05,09,23,24.00
2012,08,05,09,24,24.00
2012,08,05,09,25,23.90
2012,08,05,09,26,23.80
2012,08,05,09,27,23.80
2012,08,05,09,28,23.90
2012,08,05,09,29,23.90
2012,08,05,09,30,24.00
2012,08,05,09,31,24.10
2012,08,05,09,32,24.00
2012,08,05,09,33,24.00
2012,08,05,09,34,24.00
2012,08,05,09,35,23.90
2012,08,05,09,36,23.90
2012,08,05,09,37,23.80
2012,08,05,09,38,23.70
2012,08,05,09,39,23.70
2012,08,05,09,40,23.70
2012,08,05,09,41,23.60
2012,08,05,09,42,23.60
2012,08,05,09,43,23.60
2012,08,05,09,44,23.70
2012,08,05,09,45,23.70
2012,08,05,09,46,23.70
2012,08,05,09,47,23.80
2012,08,05,09,48,23.80
2012,08,05,09,49,23.80
2012,08,05,09,50,23.80
2012,08,05,09,51,23.80
2012,08,05,09,52,23.80
2012,08,05,09,53,23.80
2012,08,05,09,54,23.80
2012,08,05,09,55,23.80
2012,08,05,09,56,23.80
2012,08,05,09,57,23.80
2012,08,05,09,58,23.70
2012,08,05,09,59,23.70
2012,08,05,10,00,23.70
2012,08,05,10,01,23.60
2012,08,05,10,02,23.60
2012,08,05,10,03,23.60
2012,08,05,10,04,23.50
2012,08,05,10,05,23.40
2012,08,05,10,06,23.40
2012,08,05,10,07,23.40
2012,08,05,10,08,23.40
2012,08,05,10,09,23.50
2012,08,05,10,10,23.50
2012,08,05,10,11,23.50
2012,08,05,10,12,23.50
2012,08,05,10,13,23.50
2012,08,05,10,14,23.40
2012,08,05,10,15,23.40
2012,08,05,10,16,23.40
2012,08,05,10,17,23.40
2012,08,05,10,18,23.40
2012,08,05,10,19,23.30
2012,08,05,10,20,23.40
2012,08,05,10,21,23.30
2012,08,05,10,22,23.30
2012,08,05,10,23,23.40
2012,08,05,10,24,23.40
2012,08,05,10,25,23.50
2012,08,05,10,26,23.60
2012,08,05,10,27,23.60
2012,08,05,10,28,23.60
2012,08,05,10,29,23.70
2012,08,05,10,30,23.70
2012,08,05,10,31,23.70
2012,08,05,10,32,23.80
2012,08,05,10,33,23.80
2012,08,05,10,34,23.80
2012,08,05,10,35,23.80
2012,08,05,10,36,23.80
2012,08,05,10,37,23.80
2012,08,05,10,38,23.80
2012,08,05,10,39,23.70
2012,08,05,10,40,23.70
2012,08,05,10,41,23.60
2012,08,05,10,42,23.60
2012,08,05,10,43,23.50
2012,08,05,10,44,23.50
2012,08,05,10,45,23.60
2012,08,05,10,46,23.60
2012,08,05,10,47,23.60
2012,08,05,10,48,23.60
2012,08,05,10,49,23.60
2012,08,05,10,50,23.70
2012,08,05,10,51,23.80
2012,08,05,10,52,23.90
2012,08,05,10,53,24.00
2012,08,05,10,54,24.00
2012,08,05,10,55,24.10
2012,08,05,10,56,24.20
2012,08,05,10,57,24.20
2012,08,05,10,58,24.30
2012,08,05,10,59,24.30
2012,08,05,11,00,24.30
2012,08,05,11,01,24.30
2012,08,05,11,02,24.30
2012,08,05,11,03,24.30
2012,08,05,11,04,24.20
2012,08,05,11,05,24.20
2012,08,05,11,06,24.10
2012,08,05,11,07,24.10
2012,08,05,11,08,24.10
2012,08,05,11,09,24.10
2012,08,05,11,10,24.20
2012,08,05,11,11,24.30
2012,08,05,11,12,24.30
2012,08,05,11,13,24.20
2012,08,05,11,14,24.20
2012,08,05,11,15,24.10
2012,08,05,11,16,24.10
2012,08,05,11,17,24.10
2012,08,05,11,18,24.10
2012,08,05,11,19,24.10
2012,08,05,11,20,24.10
2012,08,05,11,21,24.10
2012,08,05,11,22,24.10
2012,08,05,11,23,24.20
2012,08,05,11,24,24.20
2012,08,05,11,25,24.20
2012,08,05,11,26,24.20
2012,08,05,11,27,24.20
2012,08,05,11,28,24.20
2012,08,05,11,29,24.20
2012,08,05,11,30,24.20
2012,08,05,11,31,24.30
2012,08,05,11,32,24.30
2012,08,05,11,33,24.40
2012,08,05,11,34,24.50
2012,08,05,11,35,24.50
2012,08,05,11,36,24.60
2012,08,05,11,37,24.60
2012,08,05,11,38,24.60
2012,08,05,11,39,24.50
2012,08,05,11,40,24.60
2012,08,05,11,41,24.60
2012,08,05,11,42,24.50
2012,08,05,11,43,24.50
2012,08,05,11,44,24.40
2012,08,05,11,45,24.40
2012,08,05,11,46,24.30
2012,08,05,11,47,24.40
2012,08,05,11,48,24.40
2012,08,05,11,49,24.30
2012,08,05,11,50,24.20
2012,08,05,11,51,24.20
2012,08,05,11,52,24.20
2012,08,05,11,53,24.20
2012,08,05,11,54,24.20
2012,08,05,11,55,24.30
2012,08,05,11,56,24.30
2012,08,05,11,57,24.20
2012,08,05,11,58,24.20
2012,08,05,11,59,24.30
2012,08,05,12,00,24.30
2012,08,05,12,01,24.30
2012,08,05,12,02,24.30
2012,08,05,12,03,24.30
2012,08,05,12,04,24.30
2012,08,05,12,05,24.30
2012,08,05,12,06,24.30
2012,08,05,12,07,24.30
2012,08,05,12,08,24.30
2012,08,05,12,09,24.40
2012,08,05,12,10,24.40
2012,08,05,12,11,24.40
2012,08,05,12,12,24.40
2012,08,05,12,13,24.40
2012,08,05,12,14,24.40
2012,08,05,12,15,24.40
2012,08,05,12,16,24.40
2012,08,05,12,17,24.40
2012,08,05,12,18,24.40
2012,08,05,12,19,24.40
2012,08,05,12,20,24.50
2012,08,05,12,21,24.50
2012,08,05,12,22,24.60
2012,08,05,12,23,24.70
2012,08,05,12,24,24.80
2012,08,05,12,25,24.80
2012,08,05,12,26,24.90
2012,08,05,12,27,24.90
2012,08,05,12,28,25.00
2012,08,05,12,29,25.00
2012,08,05,12,30,24.90
2012,08,05,12,31,24.90
2012,08,05,12,32,24.80
2012,08,05,12,33,24.80
2012,08,05,12,34,24.70
2012,08,05,12,35,24.70
2012,08,05,12,36,24.70
2012,08,05,12,37,24.70
2012,08,05,12,38,24.70
2012,08,05,12,39,24.70
2012,08,05,12,40,24.80
2012,08,05,12,41,24.80
2012,08,05,12,42,24.70
2012,08,05,12,43,24.80
2012,08,05,12,44,24.80
2012,08,05,12,45,24.80
2012,08,05,12,46,24.80
2012,08,05,12,47,24.80
2012,08,05,12,48,24.90
2012,08,05,12,49,24.80
2012,08,05,12,50,24.80
2012,08,05,12,51,24.80
2012,08,05,12,52,24.80
2012,08,05,12,53,24.80
2012,08,05,12,54,24.70
2012,08,05,12,55,24.70
2012,08,05,12,56,24.60
2012,08,05,12,57,24.50
2012,08,05,12,58,24.40
2012,08,05,12,59,24.40
2012,08,05,13,00,24.40
2012,08,05,13,01,24.40
2012,08,05,13,02,24.40
2012,08,05,13,03,24.40
2012,08,05,13,04,24.50
2012,08,05,13,05,24.50
2012,08,05,13,06,24.40
2012,08,05,13,07,24.40
2012,08,05,13,08,24.50
2012,08,05,13,09,24.50
2012,08,05,13,10,24.50
2012,08,05,13,11,24.60
2012,08,05,13,12,24.60
2012,08,05,13,13,24.60
2012,08,05,13,14,24.70
2012,08,05,13,15,24.70
2012,08,05,13,16,24.80
2012,08,05,13,17,24.80
2012,08,05,13,18,24.90
2012,08,05,13,19,24.90
2012,08,05,13,20,25.00
2012,08,05,13,21,25.10
2012,08,05,13,22,25.30
2012,08,05,13,23,25.30
2012,08,05,13,24,25.40
2012,08,05,13,25,25.40
2012,08,05,13,26,25.50
2012,08,05,13,27,25.50
2012,08,05,13,28,25.50
2012,08,05,13,29,25.50
2012,08,05,13,30,25.50
2012,08,05,13,31,25.60
2012,08,05,13,32,25.60
2012,08,05,13,33,25.60
2012,08,05,13,34,25.70
2012,08,05,13,35,25.70
2012,08,05,13,36,25.80
2012,08,05,13,37,25.90
2012,08,05,13,38,25.90
2012,08,05,13,39,25.80
2012,08,05,13,40,25.80
2012,08,05,13,41,25.80
2012,08,05,13,42,25.70
2012,08,05,13,43,25.70
2012,08,05,13,44,25.70
2012,08,05,13,45,25.70
2012,08,05,13,46,25.70
2012,08,05,13,47,25.70
2012,08,05,13,48,25.70
2012,08,05,13,49,25.80
2012,08,05,13,50,25.80
2012,08,05,13,51,25.90
2012,08,05,13,52,25.90
2012,08,05,13,53,26.00
2012,08,05,13,54,26.10
2012,08,05,13,55,26.10
2012,08,05,13,56,26.20
2012,08,05,13,57,26.20
2012,08,05,13,58,26.20
2012,08,05,13,59,26.20
2012,08,05,14,00,26.20
2012,08,05,14,01,26.30
2012,08,05,14,02,26.30
2012,08,05,14,03,26.40
2012,08,05,14,04,26.50
2012,08,05,14,05,26.60
2012,08,05,14,06,26.70
2012,08,05,14,07,26.70
2012,08,05,14,08,26.70
2012,08,05,14,09,26.70
2012,08,05,14,10,26.70
2012,08,05,14,11,26.70
2012,08,05,14,12,26.70
2012,08,05,14,13,26.70
2012,08,05,14,14,26.70
2012,08,05,14,15,26.70
2012,08,05,14,16,26.70
2012,08,05,14,17,26.70
2012,08,05,14,18,26.70
2012,08,05,14,19,26.60
2012,08,05,14,20,26.60
2012,08,05,14,21,26.60
2012,08,05,14,22,26.70
2012,08,05,14,23,26.70
2012,08,05,14,24,26.80
2012,08,05,14,25,26.80
2012,08,05,14,26,26.80
2012,08,05,14,27,26.80
2012,08,05,14,28,26.80
2012,08,05,14,29,26.80
2012,08,05,14,30,26.80
2012,08,05,14,31,26.80
2012,08,05,14,32,26.90
2012,08,05,14,33,26.90
2012,08,05,14,34,27.00
2012,08,05,14,35,27.00
2012,08,05,14,36,27.10
2012,08,05,14,37,27.10
2012,08,05,14,38,27.10
2012,08,05,14,39,27.10
2012,08,05,14,40,27.20
2012,08,05,14,41,27.20
2012,08,05,14,42,27.30
2012,08,05,14,43,27.30
2012,08,05,14,44,27.40
2012,08,05,14,45,27.40
2012,08,05,14,46,27.40
2012,08,05,14,47,27.50
2012,08,05,14,48,27.60
2012,08,05,14,49,27.60
2012,08,05,14,50,27.70
2012,08,05,14,51,27.80
2012,08,05,14,52,27.90
2012,08,05,14,53,28.00
2012,08,05,14,54,28.10
2012,08,05,14,55,28.10
2012,08,05,14,56,28.10
2012,08,05,14,57,28.00
2012,08,05,14,58,27.90
2012,08,05,14,59,27.80
2012,08,05,15,00,27.60
2012,08,05,15,01,27.50
2012,08,05,15,02,27.40
2012,08,05,15,03,27.30
2012,08,05,15,04,27.30
2012,08,05,15,05,27.30
2012,08,05,15,06,27.30
2012,08,05,15,07,27.20
2012,08,05,15,08,27.20
2012,08,05,15,09,27.30
2012,08,05,15,10,27.20
2012,08,05,15,11,27.30
2012,08,05,15,12,27.30
2012,08,05,15,13,27.30
2012,08,05,15,14,27.30
2012,08,05,15,15,27.30
2012,08,05,15,16,27.40
2012,08,05,15,17,27.50
2012,08,05,15,18,27.70
2012,08,05,15,19,27.70
2012,08,05,15,20,27.80
2012,08,05,15,21,27.80
2012,08,05,15,22,27.80
2012,08,05,15,23,27.90
2012,08,05,15,24,28.00
2012,08,05,15,25,28.00
2012,08,05,15,26,28.10
2012,08,05,15,27,28.10
2012,08,05,15,28,28.10
2012,08,05,15,29,28.10
2012,08,05,15,30,28.10
2012,08,05,15,31,28.20
2012,08,05,15,32,28.20
2012,08,05,15,33,28.30
2012,08,05,15,34,28.40
2012,08,05,15,35,28.50
2012,08,05,15,36,28.60
2012,08,05,15,37,28.70
2012,08,05,15,38,28.80
2012,08,05,15,39,28.80
2012,08,05,15,40,28.90
2012,08,05,15,41,28.90
2012,08,05,15,42,28.90
2012,08,05,15,43,28.90
2012,08,05,15,44,28.90
2012,08,05,15,45,29.00
2012,08,05,15,46,29.00
2012,08,05,15,47,29.10
2012,08,05,15,48,29.20
2012,08,05,15,49,29.20
2012,08,05,15,50,29.30
2012,08,05,15,51,29.30
2012,08,05,15,52,29.40
2012,08,05,15,53,29.30
2012,08,05,15,54,29.30
2012,08,05,15,55,29.30
2012,08,05,15,56,29.30
2012,08,05,15,57,29.30
2012,08,05,15,58,29.30
2012,08,05,15,59,29.30
2012,08,05,16,00,29.30
2012,08,05,16,01,29.30
2012,08,05,16,02,29.20
2012,08,05,16,03,29.20
2012,08,05,16,04,29.10
2012,08,05,16,05,29.20
2012,08,05,16,06,29.20
2012,08,05,16,07,29.20
2012,08,05,16,08,29.30
2012,08,05,16,09,29.30
2012,08,05,16,10,29.40
2012,08,05,16,11,29.50
2012,08,05,16,12,29.60
2012,08,05,16,13,29.60
2012,08,05,16,14,29.60
2012,08,05,16,15,29.60
2012,08,05,16,16,29.60
2012,08,05,16,17,29.50
2012,08,05,16,18,29.50
2012,08,05,16,19,29.40
2012,08,05,16,20,29.30
2012,08,05,16,21,29.30
2012,08,05,16,22,29.30
2012,08,05,16,23,29.30
2012,08,05,16,24,29.30
2012,08,05,16,25,29.30
2012,08,05,16,26,29.40
2012,08,05,16,27,29.40
2012,08,05,16,28,29.40
2012,08,05,16,29,29.50
2012,08,05,16,30,29.60
2012,08,05,16,31,29.60
2012,08,05,16,32,29.60
2012,08,05,16,33,29.70
2012,08,05,16,34,29.70
2012,08,05,16,35,29.70
2012,08,05,16,36,29.70
2012,08,05,16,37,29.60
2012,08,05,16,38,29.60
2012,08,05,16,39,29.50
2012,08,05,16,40,29.40
2012,08,05,16,41,29.40
2012,08,05,16,42,29.40
2012,08,05,16,43,29.50
2012,08,05,16,44,29.50
2012,08,05,16,45,29.50
2012,08,05,16,46,29.40
2012,08,05,16,47,29.40
2012,08,05,16,48,29.20
2012,08,05,16,49,29.10
2012,08,05,16,50,29.00
2012,08,05,16,51,28.90
2012,08,05,16,52,28.90
2012,08,05,16,53,28.80
2012,08,05,16,54,28.70
2012,08,05,16,55,28.70
2012,08,05,16,56,28.60
2012,08,05,16,57,28.70
2012,08,05,16,58,28.70
2012,08,05,16,59,28.70
2012,08,05,17,00,28.80
2012,08,05,17,01,28.80
2012,08,05,17,02,28.80
2012,08,05,17,03,28.80
2012,08,05,17,04,28.80
2012,08,05,17,05,28.80
2012,08,05,17,06,28.80
2012,08,05,17,07,28.80
2012,08,05,17,08,28.90
2012,08,05,17,09,28.90
2012,08,05,17,10,29.00
2012,08,05,17,11,29.00
2012,08,05,17,12,29.10
2012,08,05,17,13,29.10
2012,08,05,17,14,29.10
2012,08,05,17,15,29.10
2012,08,05,17,16,29.00
2012,08,05,17,17,29.00
2012,08,05,17,18,29.00
2012,08,05,17,19,29.00